Wind_Speed
23 24 25 26 27 30 33 35 39 43 45 48 50 51 54 57 59 61 64 67 68 67 65 63 62 60 58 54 55 54 44 38 46 42 44 51 62 50 42 36 31 30 26
20 22 23 24 26 27 28 29 32 37 41 46 49 49 50 51 52 55 57 60 63 68 69 68 68 65 59 54 50 47 43 39 45 40 46 48 46 49 39 31 30 31 27
21 23 25 27 28 29 30 33 32 32 35 40 44 48 51 51 50 51 54 55 58 61 64 67 67 66 64 54 51 47 42 40 38 47 42 41 39 42 41 31 30 32 28
23 25 28 30 32 34 34 34 36 36 34 35 37 39 42 47 49 50 51 53 55 56 59 64 65 65 64 55 45 48 43 36 43 45 39 37 38 40 41 35 32 32 31
22 24 26 29 31 33 34 34 36 39 42 41 36 35 33 36 40 45 49 51 55 56 56 58 62 62 59 54 45 45 43 42 46 43 40 42 43 41 44 40 35 35 35
24 26 28 29 31 34 35 37 38 40 43 49 48 35 31 34 37 41 46 48 50 55 56 54 55 56 58 50 51 43 47 42 43 43 40 40 42 42 44 34 33 33 36
23 26 29 32 33 34 37 39 41 41 43 45 54 50 40 38 36 38 41 44 48 51 54 55 51 53 57 49 54 52 49 49 46 43 41 38 40 39 35 36 34 35 36
22 24 27 30 33 36 37 38 40 41 42 42 53 54 49 49 45 36 37 40 43 46 50 50 47 50 54 48 53 58 48 52 50 48 47 43 38 39 38 40 37 36 36
22 24 27 31 33 36 37 38 39 40 40 39 44 53 46 47 47 43 33 36 38 41 41 42 39 44 45 42 47 57 56 57 58 57 57 50 46 41 41 41 39 37 36
23 27 29 32 34 35 37 37 37 38 38 37 38 42 41 39 41 45 32 21 23 27 28 29 33 35 36 41 47 49 51 63 64 60 57 53 47 45 43 40 38 37 34
24 27 29 31 33 34 35 35 36 35 34 34 35 35 43 35 33 35 32 19 20 22 22 19 27 31 33 37 43 48 49 58 53 53 55 51 45 42 42 34 36 37 30
25 27 28 30 31 32 33 33 33 33 32 31 31 31 32 41 26 24 26 21 12 8 12 18 16 25 24 32 38 44 47 41 36 33 34 38 38 36 35 34 36 31 26
26 27 28 29 31 32 33 34 34 33 32 31 31 31 30 32 37 25 24 23 17 16 19 15 16 23 23 35 35 36 32 29 32 30 30 32 34 32 32 30 27 24 25
25 27 28 29 30 32 34 35 36 36 34 33 31 29 30 29 26 35 35 27 23 18 12 13 13 13 18 20 19 20 22 19 17 17 19 21 29 29 28 23 21 20 21
24 26 28 29 30 32 33 35 34 35 35 36 33 32 30 28 28 27 24 28 29 25 20 15 14 14 16 17 16 15 17 16 15 17 22 24 24 22 16 17 18 17 18
24 26 27 28 30 32 33 33 35 33 32 31 31 30 28 28 27 24 21 18 16 16 17 19 17 14 10 9 7 4 3 5 7 8 8 10 13 15 16 16 15 16 16
22 24 26 29 30 32 33 33 33 32 32 30 29 29 27 26 24 23 23 21 19 18 14 10 7 5 4 3 1 3 5 6 8 10 10 11 13 13 13 13 15 15 16
23 27 28 30 31 33 34 34 34 34 32 29 27 25 25 24 22 20 19 18 17 15 13 12 10 8 5 2 0 2 3 5 6 8 10 11 11 11 11 11 13 14 14
21 25 27 31 32 33 34 35 34 32 31 30 27 24 22 21 20 20 18 17 16 15 14 12 10 8 6 5 3 3 4 5 6 8 9 9 9 10 11 11 10 9 10
22 23 25 30 33 33 34 35 34 33 32 31 29 26 23 21 19 18 18 17 17 17 15 14 13 11 9 8 7 6 6 6 6 6 7 8 8 9 10 10 10 10 10
21 24 27 31 32 33 33 34 33 33 31 30 29 27 25 21 19 18 18 18 18 17 17 16 15 13 11 9 8 9 9 9 8 9 9 9 9 10 10 12 12 12 13
27 24 30 31 33 32 33 33 32 30 31 30 28 27 25 23 20 18 16 15 16 16 15 15 15 13 11 9 9 9 10 10 10 10 12 12 12 13 13 14 14 14 14
20 24 26 31 32 32 31 30 30 30 30 30 29 26 24 22 21 19 18 17 19 19 17 17 15 11 8 7 7 8 9 10 12 12 13 13 13 14 14 15 15 15 15
21 24 26 31 32 31 30 29 29 30 30 29 28 27 23 21 20 19 18 17 17 17 16 17 14 11 7 7 8 9 10 12 12 12 12 13 13 13 14 14 13 13 14
20 24 28 31 31 30 30 29 28 28 28 28 26 24 23 22 20 19 18 17 17 18 17 16 13 10 9 9 9 10 10 10 9 11 12 13 14 14 13 12 13 13 13
21 26 29 30 29 30 30 28 27 28 27 26 24 23 21 20 20 20 20 20 20 21 20 18 16 13 10 9 10 10 11 10 9 9 9 11 13 15 16 15 14 14 13
Wind_Direction
321 322 321 319 318 313 306 299 294 291 288 284 281 277 272 268 266 264 260 259 259 258 255 254 256 259 264 263 262 265 264 271 263 273 268 273 259 251 235 239 244 253 262
330 339 342 340 340 340 338 323 308 298 291 287 285 282 280 277 273 268 265 262 260 260 258 255 254 256 257 259 256 255 259 263 267 266 264 264 253 237 236 235 248 254 263
325 325 330 334 336 341 349 353 340 322 308 296 288 284 280 277 275 272 270 266 262 259 258 256 254 251 253 252 251 251 250 257 257 255 258 259 247 226 233 235 248 257 264
332 331 336 333 334 332 334 344 350 347 335 312 297 291 287 280 275 270 267 266 265 263 258 256 253 251 249 249 242 245 242 240 247 250 250 245 228 233 240 238 250 261 264
347 348 344 342 340 338 336 335 340 347 350 344 314 296 300 293 282 274 270 265 263 263 263 257 254 250 250 245 237 237 231 231 240 244 240 239 237 231 235 255 250 256 259
354 352 350 348 346 344 341 339 338 341 344 349 341 320 315 310 296 282 276 269 263 261 259 259 256 248 245 237 235 235 230 231 235 240 235 235 243 245 242 241 249 255 262
358 356 354 351 349 347 345 343 340 340 341 339 345 338 331 326 316 295 281 273 266 261 260 258 255 248 241 233 231 229 235 229 230 239 236 238 238 236 234 240 248 252 259
1 358 356 354 351 350 348 345 343 342 344 340 343 345 337 330 329 317 299 278 273 268 264 259 255 246 238 232 222 234 231 231 229 231 229 228 229 230 234 239 247 252 258
1 359 358 358 356 353 350 348 345 344 344 346 345 350 338 333 331 331 311 289 280 271 261 256 245 241 234 227 225 235 238 222 224 227 228 233 224 227 234 241 244 251 261
358 357 358 358 355 354 352 349 348 348 346 347 345 350 346 338 339 336 318 298 278 276 262 241 234 232 225 217 225 239 248 227 220 227 231 220 220 225 230 237 245 251 259
355 355 354 354 353 352 353 352 350 351 348 348 347 348 359 347 351 348 344 326 286 265 268 249 229 223 220 228 233 251 237 221 209 214 220 218 222 227 233 236 248 261 261
354 353 351 351 351 352 353 355 353 353 351 352 351 351 360 4 3 13 19 14 339 251 226 227 238 248 235 246 240 222 218 215 209 207 214 215 223 228 233 244 258 259 255
353 352 352 352 353 354 355 357 357 356 355 355 357 357 360 7 12 21 35 45 58 103 125 160 182 195 221 195 197 198 197 200 204 200 208 214 221 235 249 253 252 251 250
352 351 353 354 355 359 358 359 357 358 358 358 359 2 5 7 11 9 21 38 56 68 85 118 140 159 177 191 178 177 181 193 210 219 229 241 245 247 249 246 246 245 248
352 352 354 355 358 1 1 358 0 358 357 355 360 0 3 7 10 19 16 15 28 41 58 77 102 132 141 164 179 192 202 212 222 232 237 239 239 239 244 245 245 244 246
352 353 353 355 359 359 1 1 357 359 358 356 356 359 2 2 6 13 19 26 33 34 34 32 41 46 54 85 103 108 173 193 209 219 223 232 237 238 242 246 246 247 249
350 354 355 357 357 359 358 359 359 359 357 358 356 354 357 360 2 5 10 14 22 26 30 42 62 75 90 87 143 200 208 220 227 233 235 236 240 240 239 241 244 246 246
349 351 355 356 355 354 355 357 356 355 356 358 356 355 353 355 357 359 4 5 12 13 16 17 21 28 32 24 265 248 251 242 241 242 242 240 241 241 241 245 244 243 246
343 348 350 352 352 351 352 352 352 352 353 354 356 355 353 350 350 356 359 2 6 7 5 4 1 355 348 344 337 307 276 254 243 240 241 238 235 233 232 234 241 249 251
337 345 345 348 349 348 347 347 347 349 352 352 351 353 354 353 352 351 354 359 360 358 356 352 347 341 331 320 312 304 293 278 269 261 254 249 247 246 249 251 251 250 251
328 338 345 344 345 344 344 343 344 344 347 349 349 348 350 351 352 352 350 351 352 352 349 345 340 333 323 312 299 291 288 286 280 269 263 258 256 254 252 254 257 258 256
334 319 335 335 340 341 339 341 341 342 343 345 347 345 345 348 350 348 348 348 349 348 347 342 335 329 320 312 306 300 294 289 282 273 265 260 257 256 256 256 256 257 257
323 328 328 329 336 338 339 339 338 339 341 341 342 343 342 342 344 345 347 346 347 348 348 346 339 329 316 317 324 323 313 301 290 278 268 261 258 258 260 261 260 258 256
312 321 325 329 333 336 337 337 337 337 338 339 338 338 340 340 341 341 343 344 345 346 344 345 339 330 303 287 299 306 300 288 278 275 267 258 253 252 254 257 259 255 249
317 318 325 329 332 334 334 335 335 336 336 336 337 336 336 338 339 340 341 342 342 343 346 347 343 334 311 282 293 307 311 301 288 273 260 253 251 250 255 260 257 250 243
318 325 326 328 330 332 332 334 336 336 336 337 336 336 336 337 338 338 340 340 341 344 345 345 344 337 324 289 282 296 307 301 287 278 269 256 253 255 258 259 251 242 235
Height
3114 3111 3107 3103 3099 3094 3088 3083 3078 3073 3069 3065 3061 3059 3056 3054 3053 3051 3050 3049 3049 3051 3054 3056 3057 3060 3060 3063 3065 3066 3068 3070 3069 3066 3068 3069 3065 3070 3076 3078 3082 3084 3085
3108 3105 3101 3096 3092 3086 3080 3074 3068 3063 3058 3051 3046 3043 3039 3037 3035 3033 3032 3032 3031 3031 3033 3036 3038 3041 3045 3047 3050 3053 3055 3058 3058 3055 3056 3058 3060 3061 3067 3070 3073 3076 3076
3103 3100 3096 3091 3086 3080 3074 3067 3060 3053 3047 3042 3035 3029 3024 3020 3018 3015 3013 3012 3012 3012 3012 3015 3019 3024 3027 3031 3035 3039 3042 3044 3046 3044 3045 3048 3050 3054 3060 3059 3066 3068 3068
3097 3092 3088 3083 3077 3072 3067 3061 3054 3046 3037 3031 3025 3018 3011 3006 3001 2997 2995 2993 2992 2992 2993 2994 2999 3005 3011 3016 3021 3025 3028 3031 3034 3034 3035 3039 3043 3048 3051 3053 3057 3059 3061
3092 3088 3083 3077 3072 3066 3061 3054 3047 3038 3030 3022 3015 3007 2999 2992 2987 2981 2978 2977 2975 2975 2976 2977 2980 2988 2994 3001 3006 3010 3015 3018 3022 3023 3026 3028 3032 3035 3040 3045 3048 3052 3054
3088 3083 3078 3073 3066 3060 3054 3047 3039 3030 3020 3012 3005 2996 2987 2979 2972 2966 2961 2960 2959 2957 2958 2960 2963 2971 2978 2986 2993 2998 3001 3006 3011 3013 3018 3020 3024 3031 3033 3037 3040 3044 3045
3085 3080 3075 3069 3062 3055 3048 3040 3032 3023 3013 3005 2996 2985 2974 2967 2960 2952 2947 2942 2940 2940 2941 2944 2946 2953 2962 2971 2980 2985 2990 2993 3000 3005 3009 3011 3015 3021 3026 3030 3032 3035 3037
3084 3079 3073 3067 3060 3052 3043 3035 3028 3019 3009 3000 2990 2976 2965 2956 2948 2939 2934 2929 2925 2925 2926 2928 2931 2937 2946 2957 2965 2972 2975 2981 2988 2994 2996 3001 3006 3011 3016 3019 3024 3026 3028
3082 3077 3071 3063 3056 3048 3040 3031 3022 3015 3006 2995 2985 2972 2960 2950 2939 2930 2922 2916 2911 2910 2912 2914 2918 2926 2934 2945 2954 2960 2962 2961 2974 2978 2982 2991 2996 3002 3007 3011 3014 3018 3020
3079 3073 3066 3060 3052 3045 3037 3029 3020 3010 3002 2992 2984 2974 2959 2948 2935 2923 2913 2906 2903 2903 2901 2903 2909 2918 2927 2934 2942 2947 2950 2950 2951 2968 2971 2978 2985 2991 2997 3001 3006 3008 3011
3077 3070 3064 3058 3051 3044 3035 3027 3017 3009 3002 2992 2983 2973 2962 2948 2936 2924 2910 2901 2900 2899 2898 2900 2905 2913 2922 2925 2931 2935 2940 2947 2939 2951 2958 2967 2976 2981 2987 2986 2999 3000 3000
3074 3069 3063 3056 3050 3043 3035 3026 3017 3008 3000 2992 2983 2974 2963 2953 2941 2931 2920 2909 2903 2897 2891 2897 2902 2909 2911 2921 2926 2928 2932 2942 2943 2947 2957 2962 2967 2974 2977 2985 2989 2989 2991
3071 3066 3060 3054 3047 3040 3032 3024 3016 3007 2999 2991 2982 2973 2964 2954 2946 2937 2928 2920 2914 2906 2898 2901 2902 2905 2911 2915 2921 2925 2930 2940 2949 2950 2952 2960 2962 2967 2972 2976 2978 2982 2984
3069 3064 3058 3052 3045 3037 3029 3021 3013 3005 2997 2990 2982 2974 2965 2957 2950 2942 2934 2927 2920 2917 2915 2912 2912 2913 2917 2921 2925 2929 2933 2943 2947 2946 2947 2952 2957 2960 2964 2968 2971 2976 2978
3068 3062 3056 3050 3043 3036 3029 3021 3013 3005 2996 2988 2980 2974 2966 2960 2952 2944 2940 2934 2928 2924 2921 2920 2919 2920 2921 2925 2927 2929 2933 2938 2939 2941 2944 2947 2950 2954 2959 2963 2966 2969 2971
3065 3060 3055 3048 3042 3035 3029 3022 3012 3006 2998 2990 2982 2976 2969 2962 2957 2951 2945 2940 2935 2932 2929 2926 2924 2926 2926 2926 2928 2931 2933 2935 2935 2937 2938 2943 2949 2952 2954 2957 2959 2962 2964
3063 3058 3052 3046 3040 3034 3027 3020 3014 3007 2997 2991 2984 2977 2971 2965 2960 2954 2949 2944 2939 2936 2934 2931 2931 2930 2930 2930 2931 2933 2934 2935 2936 2939 2941 2943 2947 2946 2949 2951 2954 2956 2959
3061 3055 3050 3044 3038 3032 3026 3019 3012 3005 2999 2993 2986 2979 2972 2967 2962 2957 2952 2948 2944 2940 2937 2935 2933 2933 2934 2934 2932 2930 2931 2932 2934 2936 2939 2942 2942 2942 2944 2946 2951 2952 2953
3058 3053 3048 3042 3036 3030 3023 3017 3011 3005 2998 2991 2986 2980 2974 2968 2963 2957 2953 2949 2946 2943 2939 2937 2934 2933 2931 2931 2930 2930 2931 2932 2934 2935 2937 2938 2938 2938 2941 2945 2946 2946 2948
3055 3051 3045 3039 3033 3027 3021 3015 3009 3002 2996 2990 2984 2979 2974 2968 2963 2958 2954 2950 2946 2942 2940 2937 2935 2932 2931 2930 2929 2930 2931 2931 2931 2932 2933 2934 2934 2936 2937 2939 2941 2941 2943
3051 3047 3042 3037 3031 3025 3019 3013 3006 3000 2995 2989 2983 2977 2972 2968 2963 2959 2954 2950 2946 2942 2938 2935 2933 2931 2929 2928 2928 2928 2928 2928 2928 2929 2929 2929 2930 2932 2934 2936 2938 2939 2940
3046 3042 3038 3034 3028 3022 3016 3010 3004 2998 2992 2987 2982 2976 2970 2965 2962 2958 2954 2951 2947 2943 2940 2936 2932 2929 2927 2926 2925 2925 2924 2924 2924 2924 2925 2927 2928 2929 2930 2931 2933 2934 2935
3042 3039 3035 3030 3025 3019 3013 3007 3001 2995 2989 2983 2978 2974 2969 2964 2960 2956 2952 2948 2945 2941 2937 2934 2931 2928 2926 2925 2923 2922 2921 2921 2921 2921 2922 2922 2923 2924 2926 2927 2928 2928 2930
3038 3034 3030 3025 3020 3015 3009 3004 2998 2992 2986 2980 2975 2970 2966 2962 2958 2954 2951 2947 2944 2941 2937 2933 2929 2927 2925 2924 2923 2922 2921 2920 2918 2918 2918 2919 2919 2921 2922 2923 2923 2924 2926
3033 3030 3026 3021 3015 3010 3005 3000 2995 2989 2983 2977 2972 2967 2962 2958 2955 2952 2948 2945 2942 2938 2935 2931 2929 2926 2923 2921 2920 2919 2918 2917 2915 2915 2915 2915 2915 2916 2917 2918 2919 2920 2922
3028 3025 3021 3016 3011 3006 3000 2995 2990 2985 2980 2974 2969 2964 2960 2956 2952 2948 2944 2941 2937 2934 2930 2928 2925 2922 2920 2919 2918 2916 2915 2913 2912 2911 2911 2911 2910 2911 2912 2913 2915 2917 2918